Simultaneous Nadir Overpasses (SNOs) Predictions

Prediction of SNOs between LANDSAT-8 and METOP-A Satellite Orbit:

Table of predicted SNOs for the next 14.0 days since TLE Epoch: 4/24/2021
Index Date (LANDSAT-8) Time (LANDSAT-8) Lat,Lon (LANDSAT-8) SZA (LANDSAT-8 ) Date (METOP-A) Time (METOP-A) Lat,Lon (METOP-A) SZA (METOP-A ) Distance(km) Time Diff (sec)
1 04/24/2021 12:33:39 -81.42,-143.99 109.07 04/24/2021 12:32:53 -81.41,-143.92 109.09 1.68 46
2 04/24/2021 13:23:06 81.40, 23.37 70.88 04/24/2021 13:23:34 81.41, 23.39 70.90 0.57 28
3 04/27/2021 08:07:53 -81.41, -77.69 109.98 04/27/2021 08:07:16 -81.41, -77.73 110.00 0.73 37
4 04/27/2021 08:57:19 81.41, 90.03 70.03 04/27/2021 08:57:56 81.40, 89.93 70.02 2.26 37
5 04/30/2021 03:42:06 -81.40, -11.42 110.86 04/30/2021 03:41:38 -81.42, -11.57 110.88 2.89 28
6 04/30/2021 04:31:32 81.40, 156.27 69.14 04/30/2021 04:32:17 81.40, 156.45 69.17 3.03 45
7 05/02/2021 23:16:19 -81.41, 55.20 111.67 05/02/2021 23:15:59 -81.40, 55.36 111.67 2.95 20
8 05/03/2021 00:05:46 81.39,-137.52 68.27 05/03/2021 00:06:40 81.40,-137.45 68.31 1.63 54
9 05/05/2021 18:50:33 -81.40, 121.39 112.50 05/05/2021 18:50:22 -81.40, 121.48 112.49 1.57 11



Historial Predications of SNOs between LANDSAT-8 and METOP-A
